Location: Sevilla
(37.3933°N, 5.9839°W)
Time: 12:57:38
(UTC+02:00)

Tiros 1 despin weight - Pass Details

Date: 02 July 2024
Orbit: 576 x 620 km, 48.2° (Epoch: 21 July)

Event Time Altitude Azimuth Distance (km) Brightness Sun altitude
Rises 09:51:13 0° 222° (SW) 2,830 ? 29.8°
Reaches altitude 10° 09:53:31 10° 218° (SW) 1,938 ? 30.2°
Maximum altitude 09:57:52 55° 140° (SE) 735 ? 31.1°
Drops below altitude 10° 10:02:18 10° 63° (ENE) 1,972 ? 32.0°
Sets 10:04:39 0° 59° (ENE) 2,885 ? 32.4°
